Flag for U.S.A. Weather past 2 weeks in Los Angeles, California, U.S.A.

Now
66 °F

Clear.


Feels Like: 66 °F
Forecast: 66 / 80 °F
Wind: No wind

Location: Los Angeles / USC Campus Downtown

Current Time: Sep 20, 2014 at 5:41:32 AM

Latest Report: Sep 20, 2014 at 4:47 AM


Visibility: 10 mi

Pressure: 29.88 "Hg

Humidity: 84%

Dew point: 61 °F

Location of Los AngelesLocation

Historic Weather in Los Angeles — Graph

°F

Los Angeles temperature yesterday

Maximum temperature yesterday: 80 °F (at 11:47 AM)
Minimum temperature yesterday: 67 °F (at 2:47 AM)
Average temperature yesterday: 72 °F

Past Weeks' High & Low Weather Summary

 TemperatureHumidityPressure
High102 °F (Sep 16, 11:47 AM)87% (Sep 6, 2:47 AM)29.91 "Hg (Sep 6, 2:47 AM)
Low64 °F (Sep 10, 6:47 AM)26% (Sep 9, 11:47 AM)29.66 "Hg (Sep 14, 5:47 PM)
Average77 °F59%29.80 "Hg
* Reported Sep 5 3:47 AM — Sep 20 3:47 AM, Los Angeles, Weather by CustomWeather, © 2014

Note: Actual official high and low records may vary slightly from our data, if they occured in-between our weather recording intervals... More about our weather records

Advertising

Los Angeles weather history for previous 24 hours

 ConditionsComfort  
Time TempWeatherWind HumidityBarometerVisibility
3:47 AM
Sep 20
67 °FClear.No wind85%29.88 "Hg10 mi
2:47 AM67 °FClear.No wind85%29.88 "Hg10 mi
1:47 AM67 °FClear.No wind85%29.88 "Hg10 mi
12:47 AM68 °FClear.No wind82%29.88 "Hg10 mi
11:47 PM
Sep 19
67 °FClear.No wind81%29.88 "Hg10 mi
10:47 PM68 °FClear.No wind82%29.87 "Hg10 mi
9:47 PM69 °FClear.No wind79%29.86 "Hg10 mi
8:47 PM70 °FClear.3 mph73%29.85 "Hg10 mi
7:47 PM71 °FSunny.No wind71%29.83 "Hg10 mi
6:47 PM72 °FSunny.3 mph66%29.83 "Hg10 mi
5:47 PM74 °FSunny.5 mph62%29.83 "Hg10 mi
4:47 PM75 °FSunny.5 mph60%29.82 "Hg10 mi
3:47 PM78 °FSunny.5 mph56%29.82 "Hg10 mi
2:47 PM77 °FSunny.7 mph58%29.83 "Hg10 mi
1:47 PM79 °FSunny.6 mph56%29.84 "Hg10 mi
12:47 PM80 °FPartly sunny.3 mph51%29.86 "Hg10 mi
11:47 AM80 °FPartly sunny.3 mph52%29.88 "Hg10 mi
10:47 AM76 °FPartly sunny.6 mph58%29.89 "Hg10 mi
9:47 AM73 °FOvercast.No wind69%29.90 "Hg10 mi
8:53 AM71 °FOvercast.No wind73%29.91 "Hg10 mi
8:47 AM71 °FOvercast.No wind73%29.90 "Hg10 mi
7:47 AM70 °FOvercast.No wind76%29.89 "Hg10 mi
6:47 AM70 °FOvercast.No wind76%29.87 "Hg10 mi
5:47 AM69 °FOvercast.No wind79%29.86 "Hg10 mi
Weather by CustomWeather, © 2014

See weather overviewHow to use our weather pages